• în România
  • Lista ţărilor
  • Pe 7 zile
  • Temperatura apei
  • Hartă satelitară
  • Meteo pe hartă
  • Widget-uri
  • user-avatar
    Intrare

    Meteo pe oră la Szekesfehervar

    Astăzi, 21 August, Marţi

    Timp Temperatura Precipitaţii Vânt Presiune Umiditate
    00:00 +27°C° 0 mm 1 m/s 750 mmHg 44%
    01:00 +26°C° 0 mm 1 m/s 750 mmHg 46%
    02:00 +26°C° 0 mm 1 m/s 750 mmHg 49%
    03:00 +25°C° 0 mm 1 m/s 750 mmHg 52%
    04:00 +24°C° 0 mm 1 m/s 751 mmHg 55%
    05:00 +25°C° 0 mm 2 m/s 751 mmHg 55%
    06:00 +26°C° 0 mm 2 m/s 751 mmHg 54%
    07:00 +27°C° 0 mm 2 m/s 751 mmHg 53%
    08:00 +28°C° 0 mm 2 m/s 751 mmHg 48%
    09:00 +30°C° 0 mm 3 m/s 751 mmHg 44%
    10:00 +33°C° 0 mm 3 m/s 752 mmHg 39%
    11:00 +34°C° 0 mm 3 m/s 751 mmHg 36%
    12:00 +35°C° 0 mm 3 m/s 751 mmHg 33%
    13:00 +36°C° 0 mm 3 m/s 751 mmHg 30%
    14:00 +36°C° 0 mm 3 m/s 751 mmHg 31%
    15:00 +35°C° 0 mm 3 m/s 750 mmHg 31%
    16:00 +35°C° 0 mm 3 m/s 750 mmHg 32%
    17:00 +33°C° 0 mm 3 m/s 750 mmHg 37%
    18:00 +31°C° 0 mm 3 m/s 750 mmHg 41%
    19:00 +29°C° 0 mm 3 m/s 750 mmHg 45%
    20:00 +28°C° 0 mm 3 m/s 751 mmHg 49%
    21:00 +27°C° 0 mm 3 m/s 751 mmHg 52%
    22:00 +26°C° 0 mm 3 m/s 751 mmHg 56%
    23:00 +25°C° 0 mm 3 m/s 752 mmHg 59%

    Mâine, 22 August, Miercuri

    Timp Temperatura Precipitaţii Vânt Presiune Umiditate
    00:00 +25°C° 0 mm 3 m/s 752 mmHg 62%
    01:00 +24°C° 0 mm 3 m/s 752 mmHg 66%
    02:00 +24°C° 0 mm 2 m/s 752 mmHg 67%
    03:00 +23°C° 0 mm 2 m/s 752 mmHg 69%
    04:00 +23°C° 0 mm 2 m/s 752 mmHg 71%
    05:00 +23°C° 0 mm 2 m/s 752 mmHg 67%
    06:00 +24°C° 0 mm 3 m/s 752 mmHg 62%
    07:00 +25°C° 0 mm 3 m/s 753 mmHg 58%
    08:00 +27°C° 0 mm 3 m/s 753 mmHg 53%
    09:00 +29°C° 0 mm 3 m/s 753 mmHg 47%
    10:00 +31°C° 0 mm 3 m/s 753 mmHg 41%
    11:00 +32°C° 0 mm 2 m/s 752 mmHg 38%
    12:00 +34°C° 0 mm 2 m/s 752 mmHg 35%
    13:00 +35°C° 0 mm 2 m/s 751 mmHg 32%
    14:00 +34°C° 0 mm 1 m/s 751 mmHg 32%
    15:00 +34°C° 0 mm 1 m/s 751 mmHg 33%
    16:00 +34°C° 0 mm 1 m/s 751 mmHg 33%
    17:00 +32°C° 0 mm 1 m/s 751 mmHg 35%
    18:00 +31°C° 0 mm 1 m/s 751 mmHg 38%
    19:00 +30°C° 0 mm 1 m/s 751 mmHg 41%
    20:00 +29°C° 0 mm 1 m/s 751 mmHg 42%
    21:00 +28°C° 0 mm 1 m/s 751 mmHg 44%
    22:00 +28°C° 0 mm 2 m/s 751 mmHg 45%
    23:00 +27°C° 0 mm 2 m/s 751 mmHg 46%

    Poimâine, 23 August, Joi

    Timp Temperatura Precipitaţii Vânt Presiune Umiditate
    00:00 +26°C° 0 mm 2 m/s 751 mmHg 48%
    01:00 +26°C° 0 mm 3 m/s 751 mmHg 49%
    02:00 +25°C° 0 mm 2 m/s 751 mmHg 51%
    03:00 +25°C° 0 mm 2 m/s 751 mmHg 53%
    04:00 +24°C° 0 mm 2 m/s 751 mmHg 55%
    05:00 +25°C° 0 mm 2 m/s 751 mmHg 54%
    06:00 +25°C° 0 mm 2 m/s 751 mmHg 54%
    07:00 +26°C° 0 mm 3 m/s 751 mmHg 53%
    08:00 +27°C° 0 mm 3 m/s 751 mmHg 50%
    09:00 +28°C° 0 mm 3 m/s 751 mmHg 48%
    10:00 +29°C° 0 mm 3 m/s 751 mmHg 45%
    11:00 +31°C° 0 mm 3 m/s 750 mmHg 42%
    12:00 +33°C° 0 mm 3 m/s 750 mmHg 38%
    13:00 +34°C° 0 mm 3 m/s 749 mmHg 34%
    14:00 +34°C° 0 mm 3 m/s 749 mmHg 34%
    15:00 +35°C° 0 mm 3 m/s 749 mmHg 33%
    16:00 +35°C° 0 mm 3 m/s 748 mmHg 32%
    17:00 +32°C° 0 mm 2 m/s 748 mmHg 35%
    18:00 +31°C° 0 mm 2 m/s 748 mmHg 39%
    19:00 +29°C° 0 mm 2 m/s 748 mmHg 42%
    20:00 +29°C° 0 mm 2 m/s 748 mmHg 43%
    21:00 +29°C° 0 mm 2 m/s 748 mmHg 44%
    22:00 +28°C° 0 mm 2 m/s 748 mmHg 45%
    23:00 +28°C° 0,2 mm 3 m/s 748 mmHg 48%

    24 August, Vineri

    Timp Temperatura Precipitaţii Vânt Presiune Umiditate
    00:00 +27°C° 0,2 mm 3 m/s 748 mmHg 52%
    01:00 +26°C° 0,2 mm 3 m/s 748 mmHg 56%
    02:00 +26°C° 0,1 mm 2 m/s 748 mmHg 59%
    03:00 +25°C° 0,1 mm 2 m/s 748 mmHg 62%
    04:00 +24°C° 0,1 mm 1 m/s 748 mmHg 66%
    05:00 +25°C° 0,4 mm 2 m/s 748 mmHg 64%
    06:00 +25°C° 0,4 mm 2 m/s 748 mmHg 62%
    07:00 +26°C° 0,4 mm 2 m/s 748 mmHg 61%
    08:00 +28°C° 0 mm 2 m/s 748 mmHg 54%
    09:00 +30°C° 0 mm 2 m/s 748 mmHg 47%
    10:00 +32°C° 0 mm 2 m/s 748 mmHg 40%
    11:00 +34°C° 0 mm 3 m/s 747 mmHg 36%
    12:00 +35°C° 0 mm 3 m/s 746 mmHg 33%
    13:00 +36°C° 0 mm 3 m/s 746 mmHg 29%
    14:00 +35°C° 0 mm 2 m/s 745 mmHg 30%
    15:00 +35°C° 0 mm 2 m/s 745 mmHg 32%
    16:00 +33°C° 0 mm 1 m/s 745 mmHg 33%
    17:00 +32°C° 0,1 mm 2 m/s 745 mmHg 37%
    18:00 +30°C° 0,1 mm 2 m/s 745 mmHg 41%
    19:00 +29°C° 0,1 mm 2 m/s 745 mmHg 45%
    20:00 +27°C° 0,3 mm 4 m/s 745 mmHg 53%
    21:00 +26°C° 0,3 mm 5 m/s 745 mmHg 62%
    22:00 +23°C° 0,3 mm 6 m/s 746 mmHg 71%
    23:00 +22°C° 0,3 mm 6 m/s 746 mmHg 73%

    25 August, Sâmbătă

    Timp Temperatura Precipitaţii Vânt Presiune Umiditate
    00:00 +21°C° 0,3 mm 7 m/s 746 mmHg 76%
    01:00 +20°C° 0,3 mm 8 m/s 747 mmHg 78%
    02:00 +18°C° 0,2 mm 8 m/s 747 mmHg 77%
    03:00 +18°C° 0,2 mm 8 m/s 747 mmHg 76%
    04:00 +17°C° 0,2 mm 7 m/s 747 mmHg 75%
    05:00 +17°C° 0 mm 7 m/s 747 mmHg 73%
    06:00 +18°C° 0 mm 8 m/s 748 mmHg 71%
    07:00 +18°C° 0 mm 8 m/s 748 mmHg 68%
    08:00 +21°C° 0 mm 8 m/s 748 mmHg 61%
    09:00 +22°C° 0 mm 8 m/s 748 mmHg 53%
    10:00 +23°C° 0 mm 8 m/s 748 mmHg 46%
    11:00 +24°C° 0 mm 7 m/s 748 mmHg 43%
    12:00 +24°C° 0 mm 7 m/s 748 mmHg 40%
    13:00 +26°C° 0 mm 6 m/s 748 mmHg 36%
    14:00 +23°C° 0,1 mm 6 m/s 748 mmHg 40%
    15:00 +22°C° 0,1 mm 5 m/s 747 mmHg 44%
    16:00 +21°C° 0,1 mm 5 m/s 747 mmHg 48%
    17:00 +20°C° 0 mm 4 m/s 747 mmHg 49%
    18:00 +19°C° 0 mm 3 m/s 747 mmHg 51%
    19:00 +19°C° 0 mm 1 m/s 747 mmHg 52%
    20:00 +19°C° 0 mm 1 m/s 747 mmHg 52%
    21:00 +18°C° 0 mm 1 m/s 747 mmHg 53%
    22:00 +18°C° 0 mm 1 m/s 747 mmHg 54%
    23:00 +18°C° 0 mm 1 m/s 747 mmHg 54%

    26 August, Duminică

    Timp Temperatura Precipitaţii Vânt Presiune Umiditate
    00:00 +16°C° 0 mm 1 m/s 747 mmHg 54%
    01:00 +16°C° 0 mm 1 m/s 747 mmHg 54%
    02:00 +16°C° 0 mm 1 m/s 747 mmHg 54%
    03:00 +15°C° 0 mm 0 m/s 746 mmHg 54%
    04:00 +15°C° 0 mm 0 m/s 746 mmHg 54%
    05:00 +16°C° 0 mm 0 m/s 746 mmHg 51%
    06:00 +19°C° 0 mm 1 m/s 746 mmHg 48%
    07:00 +20°C° 0 mm 1 m/s 746 mmHg 45%
    08:00 +21°C° 0 mm 1 m/s 746 mmHg 44%
    09:00 +22°C° 0 mm 1 m/s 746 mmHg 42%
    10:00 +23°C° 0 mm 1 m/s 746 mmHg 40%
    11:00 +25°C° 0 mm 1 m/s 745 mmHg 38%
    12:00 +26°C° 0 mm 1 m/s 745 mmHg 37%
    13:00 +28°C° 0 mm 1 m/s 744 mmHg 35%
    14:00 +27°C° 0,1 mm 2 m/s 744 mmHg 40%
    15:00 +26°C° 0,1 mm 3 m/s 744 mmHg 45%
    16:00 +26°C° 0,1 mm 3 m/s 743 mmHg 49%
    17:00 +22°C° 1,4 mm 4 m/s 744 mmHg 60%
    18:00 +20°C° 1,4 mm 5 m/s 744 mmHg 70%
    19:00 +17°C° 1,4 mm 6 m/s 745 mmHg 80%
    20:00 +16°C° 1,7 mm 6 m/s 746 mmHg 81%
    21:00 +16°C° 1,7 mm 6 m/s 747 mmHg 82%
    22:00 +16°C° 1,7 mm 7 m/s 748 mmHg 83%
    23:00 +15°C° 0,2 mm 6 m/s 748 mmHg 79%
    Arată mai mult